Home > Time Zones > World Clock > Weather > U.S.A. > Nome > Past weeks

Flag for U.S.A. Weather past 2 weeks in Nome, Alaska, U.S.A.

Now
45 °F

Passing clouds.


Feels Like: 43 °F
Forecast: 32 / 45 °F
Wind: 5 mph from North

Location: Nome Airport

Current Time: May 5, 2015 at 10:34:00 PM

Latest Report: May 5, 2015 at 9:53 PM


Visibility: 10 mi

Pressure: 30.03 "Hg

Humidity: 60%

Dew point: 32 °F

Location of NomeLocation

Historic Weather in Nome — Graph

°F

Nome temperature yesterday

Maximum temperature yesterday: 48 °F (at 1:53 PM)
Minimum temperature yesterday: 28 °F (at 6:53 AM)
Average temperature yesterday: 36 °F

Past Weeks' High & Low Weather Summary

 TemperatureHumidityPressure
High48 °F (May 4, 1:53 PM)100% (Apr 21, 5:53 AM)30.24 "Hg (Apr 21, 5:53 AM)
Low20 °F (Apr 21, 3:53 AM)56% (May 4, 1:53 PM)29.51 "Hg (Apr 21, 6:56 AM)
Average31 °F86%29.83 "Hg
* Reported Apr 20 8:00 PM — May 5 8:53 PM, Nome, Weather by CustomWeather, © 2015

Note: Actual official high and low records may vary slightly from our data, if they occured in-between our weather recording intervals... More about our weather records

Advertising

Nome weather history for previous 24 hours

 ConditionsComfort  
Time TempWeatherWind HumidityBarometerVisibility
8:53 PM
Tue, May 5
43 °FPassing clouds.No wind76%30.03 "Hg10 mi
7:53 PM43 °FPassing clouds.3 mph74%30.04 "Hg10 mi
6:53 PM42 °FPassing clouds.9 mph68%30.04 "Hg10 mi
5:53 PM43 °FPassing clouds.8 mph62%30.05 "Hg10 mi
4:53 PM43 °FPassing clouds.8 mph65%30.05 "Hg10 mi
3:53 PM42 °FPassing clouds.7 mph68%30.05 "Hg10 mi
2:53 PM40 °FPassing clouds.8 mph70%30.05 "Hg10 mi
1:53 PM40 °FPassing clouds.6 mph73%30.05 "Hg10 mi
12:53 PM36 °FPassing clouds.7 mph79%30.04 "Hg10 mi
11:53 AM37 °FPassing clouds.5 mph76%30.05 "Hg10 mi
10:53 AM38 °FPassing clouds.No wind73%30.05 "Hg10 mi
9:53 AM38 °FPassing clouds.No wind76%30.05 "Hg10 mi
8:53 AM33 °FPassing clouds.No wind92%30.04 "Hg10 mi
7:53 AM32 °FPassing clouds.No wind92%30.03 "Hg10 mi
6:53 AM29 °FPassing clouds.No wind96%30.04 "Hg10 mi
5:53 AM30 °FClear.No wind96%30.03 "Hg10 mi
4:53 AM32 °FClear.3 mph88%30.04 "Hg10 mi
3:53 AM31 °FClear.No wind92%30.05 "Hg10 mi
2:53 AM32 °FClear.No wind96%30.06 "Hg10 mi
1:53 AM35 °FPassing clouds.No wind88%30.06 "Hg10 mi
12:53 AM36 °FPassing clouds.No wind85%30.06 "Hg10 mi
11:53 PM
Mon, May 4
37 °FScattered clouds.3 mph79%30.06 "Hg10 mi
10:53 PM41 °FScattered clouds.No wind70%30.06 "Hg10 mi
Weather by CustomWeather, © 2015

See weather overviewHow to use our weather pages